RH
5 4 4 4 3 2 2 2 2 2 2 3 3 4 5 6 6 7 8 8 8 8 9 9 8 8 8 8 8 7 7 7 7 8 8 8 8 9 9 9 10 10 10 10 10 9 9 9 9 8 8 8 8 8 8 9 9 9 10 10 10 10 10 10 10 9 9 8 8 8 7 7 7 6 6 6 6 6 5 5 4 4 4 4 4 5
4 4 4 3 2 2 2 2 2 3 3 4 4 5 6 7 7 8 8 8 9 9 9 8 8 8 7 7 7 7 7 8 8 9 10 10 10 10 10 10 10 10 10 10 9 9 9 9 9 9 8 8 8 8 8 8 8 8 8 8 9 10 10 10 10 10 10 10 10 9 9 8 8 8 8 8 7 7 6 6 5 5 5 5 5 5
4 3 3 2 2 2 2 2 3 4 4 5 6 6 7 8 8 8 9 9 9 8 8 8 7 7 6 6 7 7 8 9 10 10 10 10 10 10 10 10 10 10 10 11 12 12 13 13 13 13 13 12 11 11 10 9 8 8 7 7 8 8 8 9 10 10 10 10 10 10 10 10 10 10 10 10 9 8 8 7 7 7 7 7 6 6
3 3 2 2 2 2 3 4 4 5 6 6 7 8 8 8 9 9 9 9 8 8 8 7 6 6 6 7 8 8 9 10 10 11 11 12 12 12 13 14 15 16 18 20 22 23 24 24 23 22 21 20 18 16 15 13 11 10 8 8 7 7 7 8 8 9 10 10 10 11 12 12 12 12 12 12 11 10 10 9 8 8 8 8 8 7
3 2 2 2 3 3 4 5 5 6 6 7 8 8 8 9 9 9 8 8 8 7 6 6 6 6 7 8 10 10 11 12 13 14 15 16 18 19 21 24 26 29 32 33 34 34 34 33 31 29 26 24 22 20 18 16 14 12 10 10 8 8 7 7 7 8 8 9 10 11 12 13 13 14 14 13 13 12 12 11 10 10 10 10 8 8
3 3 3 3 4 4 5 6 6 7 7 8 8 8 8 8 8 8 8 7 6 6 6 6 7 8 10 11 13 15 16 18 20 22 24 26 29 32 36 38 41 42 44 43 42 41 39 36 34 30 26 24 21 20 18 16 15 13 12 10 10 8 8 7 7 7 8 8 9 10 11 12 13 14 14 14 14 14 14 13 12 12 11 10 10 8
3 3 4 4 5 5 6 6 7 7 8 8 8 8 8 8 7 7 6 6 6 6 6 8 10 12 15 18 20 23 25 27 30 32 36 40 43 46 49 50 50 50 50 48 46 44 42 39 35 31 27 23 20 18 17 16 15 14 12 11 10 9 8 7 7 7 7 7 8 8 10 10 12 13 14 14 15 15 15 15 14 14 13 12 10 10
4 4 4 5 6 6 6 7 7 8 8 8 8 7 7 6 6 6 5 5 6 7 9 12 16 19 24 28 31 34 36 39 41 44 47 50 53 55 56 56 55 54 52 50 49 47 45 42 38 33 29 25 22 19 18 16 16 15 14 12 11 10 8 8 7 6 6 6 6 7 8 8 10 11 12 13 14 15 16 16 16 15 14 13 12 10
5 5 5 6 6 6 6 6 7 7 7 7 6 6 6 5 5 5 5 6 8 12 16 20 25 30 35 39 43 46 48 49 51 53 55 57 58 60 60 59 58 56 54 52 50 48 47 44 40 37 32 28 25 22 20 19 18 18 17 16 14 13 11 10 8 8 7 6 6 6 6 7 8 8 10 11 12 14 15 16 16 16 16 15 14 12
6 6 6 6 6 6 6 6 6 6 6 6 6 5 5 4 4 5 6 10 14 20 26 32 37 42 46 50 53 55 56 56 57 58 60 60 61 62 62 60 59 57 55 53 51 49 48 45 42 40 36 33 30 27 24 23 22 21 21 20 19 18 17 15 14 12 10 9 8 7 6 6 6 7 8 8 10 11 13 14 15 16 16 16 15 14
6 6 6 6 6 6 6 6 6 5 5 5 5 4 4 4 6 8 11 17 24 32 39 44 49 53 55 57 58 59 59 58 58 59 60 61 62 62 62 61 60 58 57 54 52 50 48 46 44 42 40 38 35 32 29 27 26 25 24 24 24 23 22 20 19 18 16 14 12 11 9 8 7 7 6 7 8 9 10 12 13 14 14 14 14 14
6 6 6 6 5 5 5 5 5 4 4 4 4 4 4 7 10 15 21 29 36 44 49 53 56 59 61 61 60 60 58 57 57 57 58 59 60 61 61 61 60 60 58 56 54 51 49 47 46 44 44 42 40 38 34 32 30 29 28 28 27 26 25 24 22 21 19 18 16 14 13 12 10 9 8 7 7 7 8 8 10 10 11 12 12 13
6 5 5 5 5 4 4 4 4 4 4 4 4 5 7 12 19 27 36 43 49 54 56 58 59 61 63 63 62 60 57 56 55 55 56 58 59 60 60 60 60 59 59 58 56 54 52 50 48 47 47 46 44 42 40 37 34 33 32 32 31 30 30 28 26 24 22 19 17 16 15 14 13 11 10 8 8 7 6 7 7 8 8 9 10 10
5 5 4 4 4 4 4 4 3 3 4 4 6 9 14 23 32 42 50 55 58 60 60 59 60 61 64 64 63 60 57 55 55 55 56 58 59 60 59 58 58 58 59 59 58 58 56 54 52 51 50 49 48 46 43 40 38 36 35 34 34 34 34 34 32 31 28 24 20 16 14 13 13 12 11 10 9 8 7 7 6 7 7 7 8 8
4 4 4 4 3 3 3 3 3 4 4 7 12 18 28 38 48 56 60 62 62 61 60 60 60 62 65 66 64 61 57 55 54 55 57 60 61 61 60 59 58 59 60 61 61 61 60 58 56 54 52 52 50 48 46 43 41 39 37 36 36 37 38 40 40 38 36 32 26 21 16 13 12 11 10 10 10 9 8 8 7 6 6 6 6 7
4 3 3 3 3 3 3 3 4 6 8 14 23 33 44 54 60 64 64 63 62 60 60 59 60 61 64 66 65 61 56 53 53 55 58 61 63 64 62 60 60 60 61 63 63 63 62 60 58 56 54 53 52 50 48 46 43 40 39 38 38 39 41 43 44 45 44 40 34 29 23 18 14 11 10 9 9 9 8 8 8 7 7 6 6 6
3 3 2 2 2 3 3 4 7 11 18 28 39 50 60 65 66 66 65 63 61 60 59 59 59 59 60 63 63 60 54 52 52 54 57 62 65 65 63 61 60 60 62 64 64 64 62 60 58 56 55 54 53 52 50 48 45 43 41 40 40 41 42 45 47 49 49 46 42 36 30 24 18 14 11 10 8 8 8 8 8 7 7 7 6 6
2 2 2 3 3 4 5 8 15 23 34 45 55 63 68 69 68 66 65 63 61 60 60 60 60 60 59 60 60 58 52 51 51 53 58 62 66 66 63 60 59 60 62 63 63 61 59 58 57 56 56 54 53 52 52 50 48 46 44 43 42 42 43 45 48 51 52 50 46 41 35 30 24 19 15 12 10 8 7 7 7 7 7 7 7 7
2 3 3 4 4 6 10 18 29 40 51 59 64 68 69 69 68 66 65 64 63 63 63 63 63 62 62 62 60 58 54 52 53 55 59 64 68 68 63 60 59 60 62 62 61 59 57 56 56 56 56 55 53 52 51 50 50 49 47 46 45 44 44 47 50 53 55 53 49 44 39 34 28 24 20 16 13 10 8 7 7 6 7 7 7 7
3 4 5 6 9 14 22 35 47 57 64 66 68 68 68 68 67 66 66 66 66 66 66 67 67 66 65 64 62 60 56 55 56 58 61 66 69 68 63 60 59 60 62 62 59 57 55 55 55 55 55 54 52 51 50 50 49 49 49 48 47 47 47 50 52 55 56 54 51 47 42 36 32 27 23 19 16 13 10 9 8 7 7 7 7 7
5 6 8 13 20 28 40 52 62 67 69 68 67 67 67 67 67 68 68 68 69 70 71 71 71 70 68 68 66 62 59 58 58 59 62 66 69 68 62 59 58 58 59 58 55 52 51 51 51 51 50 50 49 48 48 48 48 48 47 47 47 48 50 52 53 54 54 52 50 46 42 37 32 28 23 20 16 14 12 10 9 8 7 7 7 7
8 11 17 26 36 47 57 64 68 70 69 68 67 66 66 67 68 69 70 71 72 73 74 74 74 73 72 70 67 64 60 58 58 60 62 65 68 67 62 58 56 56 56 54 51 48 46 45 44 43 42 42 42 41 42 42 42 42 42 43 44 46 48 49 50 49 48 48 46 43 40 36 32 27 23 20 17 15 13 11 10 8 7 7 6 6
15 22 32 44 54 62 67 69 70 70 69 68 68 68 68 68 69 70 70 72 73 74 75 76 76 76 74 70 67 64 60 59 60 61 63 66 68 66 62 58 57 56 56 53 50 46 43 41 39 37 36 36 36 36 36 37 37 38 39 40 41 42 43 43 42 42 42 41 40 39 37 34 30 27 24 22 20 19 17 14 12 10 9 8 8 8
28 38 50 59 65 69 70 70 70 70 70 69 69 69 70 70 70 71 71 72 74 75 75 76 76 75 73 69 66 64 61 60 60 62 64 66 68 66 63 60 59 58 58 55 51 46 42 40 38 36 35 35 35 34 34 34 35 35 36 36 36 36 36 36 36 35 34 34 34 34 32 30 27 26 25 26 26 25 24 22 20 18 17 16 16 15
44 54 63 67 69 71 71 71 71 70 70 69 69 69 69 70 71 71 71 72 72 73 74 74 74 74 72 70 68 66 62 61 62 64 65 66 68 66 64 62 61 61 60 58 52 47 42 40 39 38 37 36 34 33 32 31 30 30 30 30 30 30 30 30 29 29 29 29 29 28 27 25 24 25 27 30 32 33 33 33 33 33 34 34 34 33
58 64 68 70 71 72 73 72 72 71 70 68 68 68 68 69 70 70 69 68 68 69 70 71 72 74 73 71 70 67 64 63 64 66 67 68 68 66 64 64 63 63 62 59 54 49 44 42 40 39 37 34 31 28 26 25 24 24 23 24 24 24 25 25 26 26 28 28 28 28 28 28 28 30 33 36 40 42 45 47 50 52 53 54 54 52
68 70 72 72 73 74 74 74 73 72 70 69 67 66 66 67 67 66 66 65 65 65 67 69 72 74 74 73 72 69 66 66 66 67 68 68 68 67 65 65 65 64 64 62 57 52 46 43 40 38 34 29 26 23 21 20 19 19 20 21 22 24 25 26 28 30 32 34 35 36 36 37 38 40 43 46 50 54 57 59 61 63 64 63 62 60
72 73 74 74 75 75 75 75 74 73 71 69 67 66 66 66 65 64 63 62 62 64 66 69 72 74 75 75 74 72 68 68 67 68 69 69 68 68 66 66 66 66 65 64 61 56 49 44 39 34 29 25 22 20 19 19 20 21 23 25 27 29 31 32 34 36 38 40 40 41 42 42 43 45 47 50 53 56 58 60 62 62 62 62 61 60
74 75 75 76 76 76 76 75 74 73 71 69 68 67 66 65 64 62 61 61 62 64 68 71 74 76 76 76 76 74 72 69 68 68 69 69 69 69 68 68 67 67 66 66 64 59 50 42 36 31 27 24 23 22 22 24 26 28 31 33 35 36 36 37 37 37 37 37 38 38 38 38 39 40 42 44 46 48 50 52 54 56 56 56 56 56
76 76 76 76 76 76 76 75 74 73 71 70 69 68 67 65 64 62 62 63 64 67 70 73 75 76 76 76 76 76 74 72 70 70 70 71 71 70 69 69 69 68 67 66 64 58 49 40 34 30 28 28 28 28 28 30 33 35 38 39 38 37 35 34 32 30 29 28 28 28 29 30 32 34 36 38 40 43 46 48 49 50 50 49 49 50
76 76 76 76 76 76 76 75 74 73 72 71 70 70 68 67 66 65 65 66 68 69 71 73 74 76 76 76 76 76 75 74 73 72 72 73 72 72 71 71 70 70 68 66 61 55 46 40 35 32 31 32 32 32 33 34 36 38 38 37 34 32 28 26 23 21 20 19 19 20 21 22 24 26 29 32 35 38 42 44 46 47 46 45 44 44
76 76 76 76 76 76 76 74 74 73 72 72 72 71 70 69 69 69 69 69 70 70 71 72 73 74 75 76 76 76 75 75 74 74 74 74 74 74 73 72 71 71 69 65 58 50 42 41 39 37 34 34 34 34 34 34 35 34 33 30 28 25 23 21 20 19 18 18 17 17 18 18 19 20 22 24 26 30 34 36 39 40 40 39 38 38
76 76 76 76 76 76 75 74 74 74 74 73 73 73 72 72 72 72 72 72 72 71 70 70 70 71 73 74 76 76 76 76 75 75 75 76 76 75 73 71 70 70 69 65 57 48 42 42 42 41 39 37 35 34 34 33 32 30 28 27 26 25 24 24 23 22 20 18 17 16 16 16 17 18 18 20 22 24 26 28 29 30 30 30 29 29
76 76 76 76 76 76 75 75 74 74 74 74 74 74 74 74 74 74 74 74 73 72 70 68 68 68 69 72 74 76 76 76 76 76 76 76 76 75 72 70 69 69 69 64 56 49 43 43 44 44 43 40 36 34 32 31 30 29 29 30 30 30 30 28 27 24 21 18 16 15 15 16 16 18 18 20 22 23 23 23 23 23 22 22 22 21
75 75 76 76 76 76 76 76 76 76 76 75 75 75 75 75 74 74 75 74 74 72 70 68 67 66 68 70 72 74 76 76 76 76 76 76 76 74 72 70 69 68 69 64 57 49 44 44 44 43 43 42 38 34 32 32 32 34 37 37 36 35 34 32 30 27 23 19 16 15 15 16 18 19 22 26 29 31 32 29 27 25 23 21 19 18
76 75 75 76 76 76 76 76 76 76 76 76 76 76 76 76 76 76 76 75 74 73 72 70 68 68 68 68 70 73 75 76 77 77 77 76 76 74 72 70 68 68 68 64 58 50 45 43 42 41 41 42 40 37 34 35 39 42 44 42 41 40 40 40 39 36 30 24 20 17 16 17 19 23 28 36 43 47 48 44 40 34 30 27 23 20
76 76 75 76 76 76 76 76 76 76 76 76 76 76 76 76 76 76 76 76 75 74 74 72 71 70 69 69 70 72 74 76 77 77 77 76 75 73 72 69 68 67 67 64 58 53 47 44 41 39 39 40 40 39 39 42 44 47 48 49 49 49 50 50 51 50 46 36 27 21 19 20 22 29 39 49 54 57 58 56 52 46 40 35 31 26
76 76 76 76 76 76 76 76 76 76 76 76 76 76 76 76 76 76 76 76 76 76 75 74 74 73 72 71 71 71 73 76 77 77 77 76 74 72 71 70 68 68 66 64 60 56 51 47 44 41 40 39 38 38 43 46 49 50 51 55 58 60 59 58 58 60 61 52 40 29 23 24 27 35 47 58 63 64 64 62 59 54 48 43 38 33
76 76 76 76 76 76 76 76 76 76 76 76 76 76 77 77 76 76 76 76 76 76 76 76 76 74 74 72 71 71 72 74 76 77 77 76 74 72 71 71 70 70 68 66 63 60 55 50 46 43 41 39 38 40 45 49 50 52 53 58 62 62 60 58 58 62 66 62 50 36 26 26 29 34 42 59 66 68 68 67 64 58 52 48 43 38
76 76 76 76 76 76 76 76 76 76 76 76 76 77 77 77 77 76 76 76 76 76 76 76 76 76 74 73 71 70 71 74 76 77 77 76 74 73 72 72 72 72 70 68 66 63 58 51 46 42 40 38 40 44 50 50 50 50 52 57 60 58 53 52 54 58 64 62 51 37 27 26 28 32 36 50 62 68 69 68 63 58 53 49 45 40
76 76 77 76 76 76 76 76 76 77 77 77 77 77 77 77 77 76 76 76 76 76 76 76 76 76 76 74 72 71 71 73 76 77 77 76 75 74 73 73 73 73 72 70 69 66 59 51 45 41 38 38 42 47 51 50 48 48 50 56 58 57 51 49 51 55 58 52 42 31 24 24 26 28 32 39 48 56 61 60 57 53 48 46 43 40
76 76 76 76 76 76 76 76 76 77 77 77 77 77 77 77 76 76 74 75 76 76 77 77 76 76 76 76 74 73 72 74 76 77 77 77 76 76 74 74 74 73 72 71 70 65 57 48 42 39 37 40 44 49 50 48 46 48 52 58 60 59 54 50 56 62 62 47 33 23 20 22 24 26 29 32 34 38 43 45 45 44 42 40 38 36
76 76 76 76 76 76 76 76 76 76 76 76 76 76 77 76 76 75 74 74 76 76 77 77 77 77 77 76 76 75 74 75 76 77 77 77 77 76 75 74 73 70 69 70 68 62 52 44 39 37 36 40 44 48 49 48 48 49 53 57 58 57 55 51 56 63 67 49 33 21 18 21 23 25 26 28 30 32 34 35 35 35 34 33 32 31
76 76 76 76 76 75 75 75 75 74 74 74 74 74 76 76 76 75 74 74 74 76 76 77 77 77 77 77 77 76 76 76 76 77 77 77 76 76 76 74 70 66 64 66 64 57 47 41 37 36 36 39 42 45 47 48 50 51 51 49 47 46 48 44 43 44 48 39 28 20 19 20 22 23 24 25 26 28 30 31 32 32 31 29 27 25
75 74 74 73 73 73 73 73 73 72 72 71 72 72 74 75 76 75 74 74 74 75 76 76 77 77 77 77 77 77 77 77 77 77 77 77 76 76 76 71 66 60 58 60 58 53 44 40 38 37 37 40 42 45 46 48 50 52 50 44 40 38 36 32 30 28 26 24 21 19 19 20 21 22 24 25 26 28 30 31 32 33 33 32 31 30
71 70 68 68 67 66 66 66 67 68 68 68 69 70 71 73 74 75 75 75 75 75 75 76 76 77 77 77 77 77 77 77 77 77 77 77 76 76 74 68 61 55 52 54 53 49 42 38 38 38 40 42 45 46 45 47 50 52 50 46 42 39 36 32 28 24 20 19 20 21 20 20 21 23 26 28 30 32 34 36 38 40 41 42 42 41
63 61 60 58 58 57 56 57 58 59 60 62 64 66 68 70 72 73 74 74 74 75 76 76 76 77 77 77 77 77 77 77 77 77 77 77 76 75 72 66 57 50 47 48 48 46 41 38 37 39 42 46 48 49 47 47 49 51 50 46 43 41 37 32 27 22 18 17 18 19 19 20 22 25 29 32 36 39 42 44 47 50 51 53 54 55
52 51 50 48 47 46 46 46 46 48 50 53 56 58 61 64 66 68 70 72 73 74 75 76 76 77 77 78 78 77 77 77 77 77 78 77 76 74 70 63 55 48 44 45 46 45 42 40 39 40 40 44 49 51 50 49 49 50 48 46 44 42 36 31 25 20 16 14 13 14 16 20 24 28 33 37 42 46 50 53 56 58 60 62 63 64
41 40 39 38 37 36 36 35 36 37 39 42 46 49 53 56 59 62 64 67 70 72 73 74 76 77 77 78 78 78 78 78 78 78 78 77 76 73 68 60 53 46 42 44 46 46 43 42 42 41 40 43 48 52 52 52 52 51 49 48 46 42 36 30 24 18 14 12 11 12 15 20 25 30 36 41 46 50 55 58 61 64 66 68 68 69
29 28 28 28 28 28 27 26 26 27 28 32 35 39 43 47 51 55 58 61 65 68 70 72 74 76 77 77 78 77 78 78 78 78 77 77 75 72 68 60 52 44 40 44 45 46 44 43 43 43 43 46 51 56 58 58 57 56 54 52 50 45 39 30 23 17 12 11 10 11 14 19 25 31 37 43 49 54 58 61 64 67 70 72 73 74
21 20 20 20 20 20 20 19 19 19 20 22 25 29 34 38 43 47 51 55 58 62 66 68 71 73 75 76 77 77 78 78 78 78 77 77 75 72 69 62 53 45 40 42 44 45 44 43 44 45 47 50 54 59 63 65 65 64 62 59 55 50 43 33 24 16 11 10 10 11 13 18 24 31 38 44 50 55 60 63 66 68 72 74 74 75
Wind_Speed
116 115 114 111 108 104 102 99 95 90 88 86 83 80 77 75 74 73 72 72 71 72 72 72 72 72 72 71 70 70 69 68 68 67 67 66 66 65 65 64 64 64 65 65 65 65 66 66 66 66 66 66 65 65 66 66 66 67 67 67 67 67 67 68 68 68 67 67 68 68 68 68 68 67 67 68 69 70 70 70 69 67 66 66 67 69
115 113 110 107 103 99 96 94 90 86 82 80 79 76 74 73 72 72 71 71 71 72 72 72 72 71 70 69 67 66 65 64 63 63 63 63 63 63 63 62 62 62 62 62 63 63 63 63 63 63 63 63 63 64 64 64 65 65 66 66 66 66 66 66 66 66 66 66 66 66 65 65 65 64 64 65 65 66 66 65 64 62 61 62 64 66
111 109 106 103 98 94 91 88 85 82 79 77 75 74 72 72 71 71 71 71 71 72 72 71 70 69 67 65 63 61 60 60 60 60 60 60 60 60 60 60 59 59 59 58 58 58 58 59 59 59 60 60 60 61 61 62 63 64 64 64 64 64 65 65 65 65 65 64 64 63 63 62 62 62 62 62 62 62 62 61 60 59 59 61 63 65
108 103 101 98 94 90 86 83 81 78 76 74 73 72 72 71 71 71 71 71 71 71 70 69 67 65 63 61 59 57 57 56 56 56 56 56 56 56 56 55 55 54 54 53 53 53 54 54 55 55 56 56 57 58 59 60 61 61 61 62 62 62 62 63 63 63 62 62 62 61 60 60 60 59 59 60 60 60 59 59 58 58 59 60 62 65
104 99 96 93 90 87 84 80 78 76 74 73 72 72 71 71 71 71 71 70 70 68 66 64 62 59 58 56 55 53 53 52 52 52 52 52 51 51 51 51 50 50 50 50 50 50 50 51 51 52 53 54 54 55 56 57 58 59 59 59 59 60 60 60 60 60 60 60 60 59 59 58 58 58 58 58 58 58 57 57 57 58 59 61 62 64
100 95 91 88 85 83 81 79 76 75 74 73 72 71 71 71 70 70 69 68 66 64 61 58 56 54 53 52 50 49 48 48 47 47 47 47 47 47 47 48 48 48 48 48 49 49 49 49 49 50 51 51 52 52 53 54 55 56 56 56 56 56 57 57 57 58 58 58 58 58 57 57 57 57 57 57 56 56 56 57 57 58 59 61 62 64
96 92 89 85 83 81 79 77 75 74 73 73 72 71 70 69 68 67 65 63 61 58 55 53 51 49 48 47 46 45 44 44 43 43 44 44 45 45 46 47 48 48 49 49 49 49 48 48 48 48 49 49 49 49 49 50 51 52 52 53 53 53 53 54 54 55 55 56 56 56 56 56 56 56 56 56 56 56 56 56 57 58 59 60 62 63
92 89 87 84 82 80 78 77 75 73 73 72 72 70 68 66 65 62 60 57 55 52 50 49 47 45 45 44 43 43 42 42 41 42 42 43 45 46 47 48 49 49 50 50 49 49 48 47 47 47 47 46 46 46 46 46 46 47 48 48 49 49 50 50 51 51 52 52 53 54 54 54 54 55 55 55 55 55 56 56 57 58 59 60 61 62
88 86 85 83 81 79 78 76 74 73 71 71 69 68 66 63 60 57 54 51 49 48 47 46 44 43 42 42 42 42 42 42 42 43 44 45 46 47 48 49 50 51 51 51 50 49 48 47 46 46 45 45 44 43 43 42 42 42 43 43 44 45 46 46 47 48 48 49 50 50 51 52 52 53 53 54 54 55 55 56 57 57 59 60 60 61
87 85 83 82 80 78 76 75 73 71 69 68 66 64 61 58 55 52 48 45 44 44 44 44 43 43 42 42 42 43 43 43 44 45 46 47 48 49 50 51 52 52 52 51 51 49 48 47 46 45 44 43 42 41 40 40 39 39 39 39 40 40 41 42 43 44 44 45 46 47 48 49 50 50 51 52 53 54 55 55 56 57 59 59 60 60
86 84 82 80 78 76 74 72 70 68 66 64 61 59 55 53 50 48 45 42 41 41 42 43 43 43 44 44 44 45 45 46 46 47 48 49 49 50 51 52 52 53 53 52 51 49 48 46 45 44 43 42 41 40 39 38 37 36 36 36 36 36 37 38 38 39 40 41 42 43 45 46 47 48 49 50 51 53 54 55 56 57 58 59 59 59
84 82 80 78 76 73 71 68 66 64 61 59 56 52 49 47 46 45 44 42 41 41 42 43 43 44 45 45 46 46 47 48 48 48 49 49 50 50 51 51 52 52 52 52 51 50 48 47 45 44 43 42 41 40 38 37 36 35 34 34 33 33 33 34 34 35 36 37 38 40 41 42 43 45 47 48 50 51 53 54 55 57 58 58 58 58
82 80 77 74 71 69 66 64 61 58 55 52 50 47 45 43 42 42 42 42 42 43 43 43 43 43 44 45 45 46 46 47 47 47 47 47 48 48 49 49 49 50 50 50 50 49 48 47 46 45 43 42 41 40 39 37 36 34 33 32 32 31 31 31 31 32 33 33 35 36 37 39 40 42 44 46 47 49 51 52 54 55 56 57 57 57
79 76 73 69 66 63 61 58 55 52 49 46 44 43 41 41 41 41 42 42 42 42 42 42 41 40 40 41 42 43 44 44 43 43 43 43 43 44 45 45 46 46 47 47 47 47 47 47 46 45 44 43 42 41 39 38 36 34 33 32 31 30 30 30 30 30 30 31 32 33 34 36 37 39 41 43 45 46 48 50 51 53 54 55 56 56
74 71 67 64 60 57 54 52 49 46 43 41 40 40 39 40 40 41 41 41 41 40 40 39 37 36 36 37 39 40 41 40 40 39 38 38 39 40 41 42 43 43 43 44 45 45 46 46 45 45 44 43 42 42 41 39 37 36 34 32 30 29 29 28 28 29 29 30 30 31 32 33 35 36 38 40 42 43 45 47 48 50 52 53 54 54
68 65 61 58 54 51 48 46 43 41 39 38 38 38 39 39 39 40 40 39 38 37 36 35 33 32 32 34 36 38 39 38 37 36 36 36 36 38 39 40 40 40 40 41 42 43 43 44 44 44 43 43 42 42 41 40 39 37 35 33 31 29 28 28 28 28 28 29 30 30 31 32 33 34 36 37 39 41 42 44 46 47 49 50 51 52
62 58 54 51 48 45 42 40 38 37 37 36 36 37 38 38 38 37 37 36 35 34 33 32 32 31 30 32 34 36 37 37 36 35 34 34 34 36 38 38 38 38 38 38 39 40 41 42 42 42 42 42 42 42 42 41 40 38 36 34 32 30 28 27 27 27 28 29 29 30 30 31 32 33 34 35 37 39 40 42 43 45 46 47 48 49
55 51 48 45 42 39 37 36 35 35 35 35 36 36 36 36 35 34 33 33 32 31 31 31 31 31 31 31 33 35 36 36 35 33 32 32 32 34 36 37 36 36 36 36 37 38 39 39 40 40 41 41 41 41 41 41 40 39 38 36 34 31 29 27 27 27 27 28 29 29 29 30 31 32 32 34 35 37 38 40 41 42 44 45 46 47
48 45 42 40 37 35 34 33 33 34 34 35 35 34 34 33 32 31 31 30 30 30 30 30 30 31 31 32 33 34 35 35 34 32 31 30 30 32 34 35 35 34 34 34 35 36 37 37 38 38 39 40 40 40 40 40 39 39 38 37 35 33 30 28 27 27 27 28 28 28 29 29 30 30 31 33 34 35 37 38 39 40 41 43 44 45
42 39 37 36 34 33 32 32 32 33 34 34 33 32 31 30 29 29 29 29 29 29 29 29 30 30 31 32 33 33 34 34 32 31 29 28 29 31 33 33 33 32 32 33 33 34 34 35 35 36 37 38 38 38 38 38 38 37 37 36 34 33 31 29 28 28 27 28 28 28 28 28 29 29 30 32 33 34 35 37 38 39 40 41 42 43
37 35 33 33 32 32 31 31 32 33 33 33 32 30 29 28 28 28 28 28 28 27 27 28 29 30 31 32 33 33 33 33 31 29 27 26 27 30 32 32 31 30 30 30 31 32 32 32 33 34 35 35 36 36 36 36 35 35 35 34 33 32 30 29 28 27 27 27 27 27 27 27 28 29 30 31 32 33 34 35 36 37 38 39 40 41
34 32 31 31 31 31 31 31 32 32 32 31 30 29 28 28 27 27 27 27 26 26 26 27 28 29 31 32 33 33 33 32 31 29 27 25 26 28 30 30 29 28 28 28 29 30 30 31 31 31 32 32 33 33 33 33 33 32 32 31 31 30 29 28 27 27 26 26 26 26 26 26 27 28 29 30 31 32 33 34 34 35 36 37 38 39
32 31 30 30 30 31 31 31 31 31 30 30 29 29 28 28 27 27 26 26 25 25 25 26 27 29 30 32 33 33 33 32 30 29 27 26 26 28 29 29 28 27 26 27 28 28 29 29 29 29 29 29 30 30 30 30 30 29 29 29 29 28 28 27 27 26 26 26 26 26 26 26 27 27 28 29 29 30 31 31 32 33 34 35 36 37
30 29 29 29 30 31 31 31 31 30 30 29 29 28 28 27 27 26 26 25 24 24 25 26 27 29 30 32 33 34 34 32 31 30 29 28 28 29 30 29 28 26 26 27 28 28 28 28 28 28 28 28 28 28 29 28 28 28 28 28 27 27 27 27 26 26 26 25 25 25 25 25 26 26 27 27 28 28 28 28 29 29 30 31 32 33
30 30 30 30 31 31 31 31 31 30 30 29 29 28 27 26 25 25 25 24 24 25 26 27 28 30 31 32 33 34 34 33 32 31 31 30 29 30 31 30 28 26 26 27 28 29 29 29 29 29 29 29 29 29 28 28 28 27 27 27 26 26 26 26 25 25 25 24 24 24 24 24 24 25 25 26 26 26 25 25 25 26 26 27 28 30
31 31 31 31 31 31 31 30 31 31 30 30 29 27 26 25 24 24 24 25 25 26 27 28 29 30 32 33 34 35 35 34 33 32 31 31 30 31 31 31 29 27 26 27 28 29 29 29 29 29 29 29 29 28 28 27 27 26 26 25 25 24 24 24 23 23 23 22 22 22 22 22 22 22 23 23 23 23 23 23 23 23 24 26 27 29
31 31 31 31 30 30 30 30 30 30 30 29 29 27 26 25 24 24 25 26 27 28 29 30 30 31 32 33 34 34 34 34 32 31 31 31 31 31 31 31 30 28 26 27 28 29 30 30 29 29 29 28 28 27 26 25 24 23 22 22 21 21 21 20 20 20 20 20 20 20 20 21 21 21 22 22 22 22 22 22 23 24 26 28 30 31
31 30 30 30 29 29 29 29 29 29 29 29 28 27 26 26 26 26 27 28 28 29 30 30 31 31 31 31 32 33 34 34 32 31 30 31 31 31 32 32 30 29 27 27 28 30 30 30 29 28 27 26 25 24 22 21 20 19 19 18 18 18 19 19 19 19 20 20 21 21 21 22 22 22 23 23 24 24 25 25 27 28 30 32 34 35
29 29 28 28 28 28 27 28 28 28 28 28 27 27 27 27 27 28 28 29 30 30 30 30 30 30 30 30 31 32 33 33 32 30 30 30 31 31 32 32 31 30 28 27 28 29 30 30 28 27 25 24 22 20 19 18 18 17 17 18 18 18 19 19 19 20 20 21 22 22 22 23 23 23 24 24 25 26 26 28 29 31 32 34 35 36
27 27 26 26 26 26 26 26 27 27 27 27 27 28 28 28 29 29 29 30 30 30 30 29 29 29 29 29 29 30 31 32 31 30 29 29 30 31 32 32 31 30 29 28 27 28 28 28 27 25 22 21 19 18 17 17 17 18 18 19 19 19 20 20 20 20 20 20 21 21 21 22 22 23 23 24 24 25 26 27 28 30 31 32 33 34
24 24 24 24 25 25 25 25 25 25 26 27 27 28 29 29 29 30 30 30 30 30 29 29 28 28 29 29 29 30 30 30 30 30 29 29 29 30 31 31 30 30 30 29 27 25 25 25 24 23 21 19 18 17 17 17 17 18 18 19 19 19 19 19 19 19 19 19 19 20 20 21 21 22 22 23 23 24 25 26 28 29 29 30 30 30
22 22 23 23 23 23 23 24 24 25 25 27 28 28 29 29 30 30 30 30 30 30 29 28 28 28 28 29 30 30 30 30 30 29 28 28 28 29 30 30 30 29 29 29 28 26 23 22 21 21 20 18 17 17 17 18 18 18 18 18 18 19 19 19 19 19 19 19 19 19 20 20 20 20 21 21 22 23 24 25 26 27 27 28 28 28
21 21 21 21 22 22 22 23 24 25 26 27 28 28 29 29 30 30 30 30 30 29 29 28 28 27 28 29 30 30 31 31 30 29 28 27 28 29 30 30 29 29 28 28 28 27 24 22 20 19 19 19 18 18 19 19 19 18 18 18 18 18 18 18 19 19 19 19 19 18 18 18 18 18 18 18 19 19 20 21 22 23 24 24 25 25
21 21 21 21 21 22 22 23 24 25 26 27 28 28 28 29 29 29 29 29 29 29 29 29 28 28 28 28 29 30 31 31 30 29 28 27 27 28 29 30 30 29 28 27 27 26 25 24 22 20 20 20 20 20 20 19 18 18 18 17 18 18 18 19 19 19 19 19 18 18 17 16 16 15 15 15 15 16 16 17 18 19 20 20 21 22
20 20 20 21 21 22 22 23 24 25 25 26 27 27 28 28 28 28 28 28 28 28 29 29 29 29 29 30 30 31 31 31 31 29 28 27 27 28 29 30 30 29 28 27 26 25 24 24 23 22 21 21 21 21 19 18 18 18 18 18 18 19 19 20 20 21 20 20 19 18 17 16 15 14 14 14 15 15 16 16 16 16 16 17 17 18
20 21 21 21 21 22 22 23 23 24 24 25 26 26 27 27 27 27 27 27 27 27 28 29 30 30 31 31 31 32 32 32 31 30 28 27 27 28 29 30 30 29 28 27 26 26 24 24 24 24 23 22 21 20 18 18 17 18 18 19 20 20 21 21 22 22 23 22 21 19 18 16 15 14 15 15 17 18 19 18 17 16 15 15 15 15
21 21 22 22 22 22 22 22 22 23 23 24 24 25 26 26 27 27 27 27 27 27 28 29 30 31 31 32 32 33 33 32 32 30 29 27 27 28 29 30 30 29 28 27 26 26 26 25 25 24 22 21 19 18 17 17 17 18 19 20 21 22 22 22 22 23 23 24 23 21 19 17 16 15 15 17 18 20 21 20 19 17 15 14 13 13
22 23 23 23 23 22 22 22 22 22 22 23 23 24 25 25 26 26 26 26 26 27 27 28 29 30 31 32 33 33 34 33 33 31 29 27 27 27 29 30 30 29 28 27 27 27 27 26 24 23 21 20 18 16 15 15 16 17 20 21 22 21 21 21 20 21 22 23 23 21 19 17 16 14 14 15 17 19 21 20 19 17 14 12 11 10
23 24 24 24 23 23 22 22 22 22 22 22 23 23 24 24 25 26 26 26 26 26 27 27 28 29 31 32 33 33 34 34 33 32 29 27 27 27 29 30 30 29 28 27 27 27 27 26 23 21 20 18 16 15 15 14 15 17 19 21 21 20 20 19 19 19 20 21 21 20 19 17 15 13 12 12 13 16 18 18 17 15 13 11 8 6
23 24 24 24 24 23 23 22 22 22 22 22 22 23 23 24 24 25 26 26 26 26 26 27 28 29 30 31 32 33 34 35 34 32 30 27 26 27 28 30 30 29 28 27 27 27 26 25 22 20 18 17 15 14 14 14 15 17 19 21 21 20 19 18 19 19 19 18 18 18 17 15 13 12 10 10 10 11 12 13 13 12 10 8 5 2
24 24 24 24 24 24 24 23 23 23 22 22 22 22 22 23 23 24 25 25 26 26 26 26 27 28 29 31 32 33 35 35 35 33 30 27 25 26 28 30 30 29 27 26 25 25 25 23 21 19 17 16 15 14 14 14 15 17 20 21 21 20 19 19 19 19 19 18 17 16 15 13 12 11 10 9 8 7 7 8 8 8 7 5 4 4
24 24 24 24 24 24 24 24 24 23 23 23 23 23 22 22 22 23 23 24 25 25 26 26 26 27 28 29 31 33 34 35 34 32 29 26 24 25 27 29 30 29 26 25 24 24 22 21 19 17 16 15 15 15 15 15 17 18 20 20 19 19 18 17 18 18 18 17 16 14 13 12 11 11 10 9 8 7 7 7 7 7 7 8 9 10
24 25 25 25 25 24 24 24 24 24 24 24 23 23 23 23 22 23 23 23 24 25 25 25 26 26 27 28 30 32 33 34 34 31 28 25 23 24 27 29 30 28 26 24 22 22 20 19 17 16 16 15 15 15 16 17 18 18 17 16 15 14 14 14 14 14 14 14 14 13 13 12 11 11 10 10 9 10 10 11 11 12 13 14 15 17
24 25 25 25 25 25 25 25 25 25 25 24 24 24 24 23 23 23 23 23 24 24 25 25 26 26 27 27 28 30 32 33 32 30 27 23 22 23 26 28 29 28 25 23 21 20 18 17 16 16 16 16 16 16 17 18 18 17 15 14 14 13 13 13 13 12 11 11 12 12 12 12 11 11 11 11 12 13 14 15 16 17 19 20 22 24
25 26 26 26 26 26 25 25 25 25 25 25 25 25 24 24 23 23 23 23 23 24 24 25 25 26 26 27 27 29 31 32 31 29 25 22 21 23 25 28 29 27 25 22 20 18 17 16 15 16 16 16 16 17 17 18 18 17 16 16 17 17 17 17 16 14 13 12 12 13 12 12 12 12 12 13 14 16 17 19 20 21 23 25 27 29
26 27 27 27 27 27 26 26 26 26 26 26 26 25 25 25 24 24 23 23 23 23 24 25 25 26 26 26 26 28 29 30 29 27 24 21 20 22 25 28 28 27 24 21 20 18 17 16 15 15 16 16 16 17 18 18 18 17 17 18 19 19 19 18 17 16 15 14 13 12 12 12 13 14 15 15 17 18 20 22 23 25 26 28 30 32
27 27 28 28 28 27 27 27 26 26 26 26 26 26 25 25 24 24 24 23 23 23 23 24 25 25 26 26 26 26 28 29 28 26 22 20 20 22 25 27 28 26 24 21 19 18 17 16 16 15 16 16 17 17 18 19 19 19 19 20 20 20 20 19 18 17 15 14 13 13 13 14 15 16 17 18 19 20 22 24 25 27 28 29 31 32
28 28 28 28 28 28 28 27 27 27 26 26 26 26 25 25 25 24 24 23 23 22 22 23 24 24 25 25 25 26 26 27 27 25 21 19 20 22 25 27 27 26 23 21 19 18 17 16 16 15 16 16 17 18 19 20 20 20 20 21 21 21 20 20 19 17 16 15 14 14 14 15 16 18 19 20 21 22 23 24 25 27 28 29 30 31
28 28 28 28 28 28 28 27 27 27 27 26 26 26 25 25 25 24 24 23 22 22 22 22 23 23 24 24 24 25 25 26 26 24 21 19 20 22 25 27 26 25 23 21 19 18 16 16 15 15 16 17 18 19 20 21 21 22 22 22 22 21 21 20 19 18 17 16 15 15 15 16 17 19 20 20 21 22 22 23 24 25 26 26 27 28
29 29 29 28 28 28 28 27 27 27 26 26 26 25 25 25 24 24 24 23 22 22 21 21 22 22 23 23 23 24 24 25 25 23 20 19 20 22 25 26 26 25 22 20 18 16 15 15 15 15 16 18 19 20 21 22 22 22 22 22 22 21 21 20 19 18 18 17 16 16 16 16 17 18 19 20 20 21 21 21 22 22 23 24 24 25
29 29 28 28 28 28 27 27 27 26 26 26 25 25 24 24 24 24 23 23 22 22 21 21 21 21 22 22 22 22 23 23 23 22 19 19 20 22 24 26 26 24 22 20 17 15 14 13 14 15 16 18 19 20 21 21 22 22 22 22 22 22 21 20 19 19 18 17 17 16 16 16 17 18 19 20 20 20 19 19 20 20 21 22 23 24
Wind_Direction
310 309 309 308 308 307 306 305 304 303 302 301 300 300 299 299 298 298 297 297 297 296 296 297 297 297 297 296 296 295 294 293 292 291 290 290 289 288 287 287 286 285 285 284 284 284 284 283 283 282 281 281 280 279 277 276 275 274 273 272 271 270 270 269 269 268 268 267 266 266 265 265 264 264 263 262 261 261 260 259 258 257 256 254 252 250
310 309 309 308 307 307 306 305 304 303 302 301 300 300 299 299 298 298 297 297 297 297 298 298 298 298 298 297 296 295 294 293 292 291 290 289 289 288 287 287 286 286 285 285 285 285 285 284 284 283 283 282 281 280 279 277 276 275 273 272 271 271 270 269 269 269 268 268 267 267 267 266 266 265 264 263 262 262 261 261 259 258 256 253 251 249
309 309 308 308 307 306 305 304 303 302 302 301 300 300 299 299 299 298 298 298 298 298 299 299 299 299 298 297 296 295 294 292 291 290 290 289 288 288 287 287 287 286 286 286 286 286 286 285 285 284 284 283 282 280 279 278 276 275 274 273 272 271 270 270 269 269 269 268 268 268 267 267 266 266 265 264 263 262 262 261 259 257 255 252 250 248
309 309 308 307 307 306 305 304 303 302 301 301 301 300 300 299 299 299 299 299 299 300 300 300 299 299 298 297 296 294 293 292 291 290 289 289 288 288 287 287 287 287 287 287 287 287 287 287 286 285 285 284 282 281 280 278 277 276 275 274 273 272 271 271 270 269 269 268 268 268 267 266 266 265 264 263 263 262 261 260 258 256 253 251 249 247
309 308 308 307 306 305 304 304 303 302 302 301 301 300 300 300 300 300 300 300 300 300 300 300 299 298 297 296 295 294 293 292 291 290 289 289 288 288 288 288 288 288 289 289 289 289 288 288 287 286 286 284 283 282 281 279 278 278 277 275 274 273 272 271 270 270 269 268 268 267 266 265 264 263 263 262 261 261 260 258 256 254 252 250 248 247
309 308 307 306 306 305 304 304 303 303 302 302 301 300 300 300 300 300 300 301 301 300 300 300 299 298 297 297 296 295 294 292 291 290 290 289 289 289 289 289 289 290 290 290 290 290 290 290 289 288 287 286 285 283 282 281 280 279 278 277 275 274 273 272 271 270 269 268 267 266 265 264 263 262 261 261 260 259 258 256 255 253 251 250 248 247
308 308 307 306 305 305 304 304 304 303 303 302 301 300 300 300 300 301 301 301 301 301 300 300 299 298 298 297 296 295 294 293 292 291 290 289 289 289 289 290 290 291 291 291 292 292 292 292 291 291 290 289 287 286 284 283 281 281 279 278 277 275 274 273 271 270 269 268 267 266 265 264 263 262 261 260 259 258 257 256 254 253 252 250 249 248
308 307 306 306 305 305 305 304 304 303 303 302 301 301 300 301 301 301 302 302 302 302 301 300 300 299 299 298 297 295 294 292 291 290 289 288 288 289 289 290 290 291 291 292 292 293 293 293 293 293 293 292 290 289 287 285 283 282 281 280 279 277 276 274 273 271 270 269 268 266 265 264 263 261 260 259 258 257 256 255 254 253 252 251 250 249
307 307 306 306 305 305 305 304 304 303 303 302 301 301 302 302 302 302 303 303 303 303 302 301 300 299 298 297 296 294 293 291 289 288 287 287 287 287 288 289 290 290 291 292 292 292 293 293 294 294 295 294 293 292 290 288 286 284 282 281 280 279 278 276 275 274 272 270 269 267 266 264 263 261 260 258 257 256 255 254 253 252 252 251 250 249
307 306 306 306 306 305 305 305 304 303 303 302 302 303 304 304 304 304 304 303 303 303 302 301 300 299 297 296 294 292 291 289 287 286 286 286 286 287 287 288 289 289 290 291 292 292 292 293 294 295 296 296 296 294 293 291 288 286 284 283 281 280 279 278 276 275 274 272 270 269 267 265 263 262 260 258 257 255 254 253 252 251 251 250 249 249
307 306 306 306 306 306 305 305 304 303 303 303 304 304 305 306 306 306 305 304 303 302 301 300 300 299 297 295 293 291 289 287 286 285 284 284 285 285 286 287 288 289 289 290 291 292 293 293 294 295 296 296 296 296 295 293 291 289 287 285 283 281 280 279 277 276 275 273 271 270 268 266 264 262 260 258 256 255 253 252 251 250 250 249 249 248
306 306 306 306 306 306 305 305 304 304 304 305 305 306 307 307 307 306 306 305 304 303 302 301 300 299 298 296 293 291 288 287 286 285 285 285 285 285 285 286 287 288 289 290 292 293 294 294 294 295 295 296 296 296 296 295 293 291 289 287 285 284 282 281 279 278 276 274 272 270 268 266 264 262 260 258 256 255 253 252 251 250 250 249 248 248
307 307 307 307 306 306 305 305 305 305 306 306 307 308 308 308 307 307 307 306 306 305 303 302 301 300 299 297 295 293 291 289 288 288 288 287 286 286 286 286 287 287 288 290 291 293 294 294 295 295 295 296 296 296 296 295 294 293 291 290 288 287 286 285 283 281 279 277 274 271 268 266 263 261 259 258 256 255 254 253 252 251 250 250 249 248
308 308 308 307 307 306 306 306 306 307 308 308 309 309 309 309 309 308 308 308 307 306 305 305 304 303 302 300 298 295 294 293 293 293 292 292 290 289 288 288 288 288 289 290 291 292 293 294 294 295 295 295 296 296 296 295 295 294 292 291 290 290 290 289 288 286 284 281 277 273 270 266 263 261 259 258 256 255 254 253 253 252 251 250 249 248
309 309 308 308 307 307 307 307 308 309 309 310 310 309 310 310 310 310 310 310 309 309 308 307 307 307 306 304 301 299 298 298 299 299 298 297 296 294 292 291 290 290 290 291 291 292 292 293 293 294 295 295 295 295 295 295 295 294 293 292 291 291 292 292 292 290 288 285 281 277 272 269 265 262 260 258 257 255 254 253 252 252 251 251 250 249
310 310 309 309 308 308 308 309 310 311 311 311 311 311 311 312 313 313 312 312 312 311 311 311 311 310 309 307 305 304 303 303 304 305 304 303 301 298 296 294 294 293 292 292 291 291 292 292 293 294 295 295 295 295 295 295 295 295 294 293 292 292 293 293 293 293 291 288 284 280 276 272 268 265 262 260 258 256 254 253 252 251 251 250 250 249
311 311 310 310 310 310 311 311 312 312 312 312 312 313 314 315 315 315 315 314 314 315 315 315 315 314 312 310 308 307 307 308 309 309 310 308 305 302 299 298 297 296 295 294 293 293 293 293 294 295 295 295 295 295 295 296 296 296 295 294 294 293 294 294 294 293 291 288 284 280 277 273 270 267 264 262 259 257 256 254 253 252 251 250 249 248
312 312 311 311 311 312 313 314 314 313 313 313 314 315 316 317 318 318 318 318 319 320 320 320 319 318 317 315 313 311 311 313 314 315 315 313 309 305 302 301 301 300 299 297 296 295 295 296 296 296 296 295 295 295 295 296 296 296 296 296 295 295 295 295 294 293 291 287 283 280 276 274 271 268 266 263 261 259 257 255 254 252 251 250 249 248
313 313 313 313 314 315 316 316 315 314 314 315 317 318 319 320 321 321 321 322 324 325 325 325 324 322 320 318 317 317 317 319 321 322 321 317 312 307 304 304 304 304 303 301 300 299 298 298 298 297 296 296 295 295 295 295 296 296 296 296 296 295 295 295 294 292 288 285 281 278 275 273 271 269 267 264 262 260 258 257 255 253 252 250 249 247
314 315 315 316 316 317 317 317 317 316 316 318 319 321 322 324 324 325 326 327 328 329 329 328 326 324 323 322 321 321 323 325 327 327 326 322 315 310 307 307 308 308 307 305 303 302 301 300 299 298 297 296 296 296 296 296 295 295 295 295 295 295 294 293 291 288 284 280 277 275 273 272 270 269 267 265 263 261 259 257 256 254 252 251 249 248
316 317 318 318 318 318 319 318 318 318 319 320 322 324 326 327 329 330 330 330 331 331 331 329 327 326 324 323 323 324 326 329 331 332 331 326 319 314 311 312 312 312 310 308 306 304 304 302 300 299 298 297 297 297 296 296 295 295 294 293 292 292 290 289 286 282 279 276 274 272 272 271 270 269 267 265 263 262 260 258 256 254 252 251 249 248
319 320 321 320 320 320 320 320 320 321 321 323 325 328 330 332 332 333 332 332 332 332 332 330 329 327 325 324 324 325 327 331 334 335 335 331 324 318 316 317 317 316 314 311 309 307 306 304 303 301 300 299 298 298 297 296 295 294 293 291 290 288 286 283 280 277 274 272 271 271 270 270 269 268 267 266 264 263 261 259 256 254 252 251 249 248
320 322 322 322 321 321 321 322 322 323 324 326 328 331 333 335 335 334 333 333 333 333 333 332 330 328 326 325 324 325 328 332 335 337 338 335 329 324 322 322 322 321 318 314 312 311 309 308 306 305 304 303 301 300 299 297 295 293 291 289 287 285 283 281 278 275 273 271 271 270 270 269 268 267 267 266 265 264 262 259 257 254 252 250 248 247
322 323 324 323 323 323 324 324 325 326 327 329 331 333 335 336 336 335 334 333 333 333 334 333 332 330 328 327 326 326 328 332 335 338 339 337 333 329 327 327 326 324 320 317 315 314 313 312 311 311 309 307 305 303 301 298 296 294 292 289 287 285 283 281 279 277 275 274 273 271 270 269 268 267 267 267 266 265 263 260 257 254 252 250 249 247
325 325 326 326 326 326 326 327 328 329 329 331 332 335 336 337 336 335 334 334 334 335 336 336 336 335 333 331 329 328 329 332 335 337 338 338 335 333 331 331 330 327 323 320 318 317 317 316 316 315 314 311 309 306 304 301 299 297 295 292 290 288 286 285 283 282 282 280 278 276 274 271 269 268 268 267 267 265 263 260 257 254 252 251 250 248
327 327 327 327 328 328 329 330 330 330 330 331 333 335 336 337 337 336 336 336 337 339 340 341 341 340 338 335 332 330 330 331 333 335 337 337 336 335 334 333 332 329 325 322 320 320 319 320 320 319 317 314 312 310 308 306 304 302 300 298 296 294 292 291 290 289 288 287 285 282 278 275 272 270 268 267 266 264 262 259 256 253 251 250 249 248
327 327 328 328 329 330 331 331 331 330 330 331 332 334 336 337 338 338 339 340 341 342 343 344 344 343 341 338 335 332 330 331 333 334 335 336 336 336 336 335 334 331 327 324 322 322 322 322 322 321 319 317 316 314 313 311 309 308 305 303 301 299 297 296 295 293 292 290 287 284 281 277 274 270 267 265 263 260 257 254 252 250 248 248 247 246
326 327 328 329 330 332 332 332 331 330 330 330 332 334 337 338 339 341 342 342 342 344 345 346 346 345 344 341 337 334 331 331 332 333 334 335 336 336 337 337 335 332 329 327 325 325 325 325 325 324 323 322 320 320 319 317 316 314 312 309 307 305 303 301 299 297 295 292 290 287 283 280 276 272 268 265 261 257 254 251 249 247 246 246 246 245
326 327 329 331 332 333 333 332 331 330 330 330 332 335 338 340 340 341 342 342 342 344 346 347 347 347 346 343 340 336 334 332 332 333 333 335 336 337 338 338 336 334 332 330 328 327 327 328 328 328 328 327 327 327 326 325 324 322 319 317 314 312 309 307 305 302 299 295 292 289 286 283 280 276 273 269 265 262 258 255 253 251 249 248 248 247
326 328 330 332 333 334 334 333 332 331 331 332 335 338 340 341 341 340 340 341 342 344 346 347 348 348 347 345 343 340 337 335 333 333 334 335 336 338 339 338 337 335 333 332 331 329 328 330 331 332 333 334 334 334 334 332 330 328 325 323 320 318 316 314 311 308 304 301 297 294 292 289 286 284 281 278 275 272 269 266 263 261 259 257 254 252
328 330 332 334 335 335 334 334 333 333 334 336 338 340 341 341 341 340 340 340 342 344 346 348 349 349 348 347 345 344 341 338 336 334 334 336 337 338 340 339 337 336 334 334 334 333 332 333 334 336 338 339 339 338 337 334 332 331 329 327 326 324 323 321 320 317 315 312 309 306 304 301 298 295 292 289 286 283 280 277 275 272 270 267 264 260
331 333 335 336 336 336 335 335 336 337 338 340 341 342 342 341 341 340 340 341 341 343 345 348 350 351 351 349 348 346 345 342 339 336 336 337 338 339 341 340 339 337 336 336 336 336 338 338 337 338 340 341 340 339 337 336 335 335 335 335 334 333 332 332 331 329 327 325 322 320 316 313 309 306 302 298 294 290 287 283 280 278 275 273 270 267
333 335 337 337 338 338 339 339 341 342 343 343 343 343 342 341 340 340 340 341 341 343 345 347 350 352 352 352 351 349 348 345 342 339 337 338 339 340 342 342 341 339 338 338 337 338 339 340 339 339 340 340 340 340 340 340 342 344 346 346 346 345 344 344 342 340 339 336 333 330 327 323 320 315 311 307 303 298 294 289 285 282 278 275 271 268
334 337 338 339 340 341 342 343 345 345 346 345 344 343 342 340 340 340 340 341 341 343 345 347 349 352 353 353 353 352 350 348 345 341 339 339 340 342 343 344 343 342 341 339 339 338 339 339 340 341 342 342 344 345 346 349 352 355 357 357 357 357 356 355 355 353 351 349 345 342 338 334 331 328 325 322 318 313 308 301 295 289 283 278 272 267
336 337 339 340 341 342 344 346 347 347 347 346 344 343 341 340 340 340 340 341 342 343 345 347 349 351 352 353 354 353 352 350 348 344 342 341 342 344 345 346 346 345 343 341 341 341 342 341 343 345 347 348 350 352 356 0 4 6 6 5 5 5 5 5 5 4 2 360 356 353 348 345 343 343 342 342 341 337 330 322 313 303 294 284 275 267
337 338 340 341 341 343 344 346 348 348 348 346 345 343 342 341 340 339 339 340 342 344 346 348 349 351 352 353 353 353 353 352 350 347 345 343 344 345 346 347 348 348 346 344 344 345 346 347 348 351 354 355 357 0 5 9 12 13 13 12 11 11 10 10 10 9 7 5 2 359 356 354 354 355 357 358 357 353 346 338 329 318 307 295 282 270
338 339 340 340 341 342 343 346 347 348 348 346 345 344 342 341 340 339 339 340 342 345 347 348 350 351 352 352 352 352 352 353 352 350 347 345 345 347 348 349 350 350 348 347 347 349 351 353 354 356 359 1 3 7 13 17 18 19 19 17 16 15 14 14 13 12 9 7 4 2 0 359 1 4 6 6 3 358 351 344 337 329 319 306 292 276
339 339 339 339 339 341 342 344 346 347 347 346 345 344 343 341 340 339 339 340 342 344 347 348 349 350 351 351 351 351 352 353 353 352 349 347 347 348 350 351 351 351 350 349 351 353 356 358 358 359 1 4 9 14 19 22 25 26 25 22 19 17 16 17 17 15 12 7 5 3 2 2 4 8 12 12 6 359 352 346 341 335 328 318 303 283
339 338 337 337 338 339 341 343 345 346 346 346 345 345 343 342 341 339 339 339 341 344 346 347 348 349 350 350 350 351 352 354 355 354 351 349 348 349 351 353 353 352 352 352 353 356 359 1 2 2 4 8 14 20 24 27 29 30 29 26 21 18 17 18 21 20 16 10 5 3 3 4 5 8 14 18 12 1 351 346 343 340 336 330 318 293
338 337 336 335 336 338 339 341 343 344 345 345 345 344 344 342 341 340 339 339 340 342 345 346 348 348 349 349 349 350 352 354 356 355 353 351 349 350 353 354 355 354 353 353 355 357 360 2 4 7 10 15 21 27 30 31 32 33 32 28 22 17 17 19 22 23 20 13 7 4 5 7 7 8 13 20 18 7 354 348 346 347 347 346 340 318
336 335 334 334 335 336 338 339 341 342 342 343 343 343 343 342 341 340 339 339 340 342 344 345 347 347 348 348 348 350 352 355 356 356 354 352 351 352 353 355 356 356 354 354 356 358 0 3 6 11 16 23 29 33 34 34 33 33 31 25 18 14 14 18 20 21 18 13 10 9 11 12 13 14 16 23 27 23 13 5 3 6 15 29 56 101
335 334 334 334 334 336 336 337 337 338 338 339 340 341 341 341 341 341 340 339 340 341 342 344 345 345 346 347 348 350 352 355 356 356 355 354 353 353 354 356 356 356 356 356 357 359 1 4 9 15 23 29 34 37 37 36 35 32 28 22 14 9 10 15 19 18 14 10 11 16 20 22 23 25 27 32 38 46 53 55 55 59 68 82 96 109
334 333 332 333 333 334 334 334 334 334 335 335 337 338 339 340 341 341 340 339 339 340 341 342 344 344 345 346 347 350 352 355 356 357 357 356 354 353 354 355 356 357 358 358 359 1 4 7 14 21 28 33 37 38 38 38 36 31 26 20 13 7 8 16 23 23 16 12 15 22 29 33 35 39 45 51 59 67 75 80 85 89 94 100 105 110
332 332 331 331 332 332 332 332 331 331 331 332 334 335 337 338 339 340 339 339 339 340 341 342 343 343 344 345 347 350 352 355 357 358 358 357 355 353 353 354 356 357 359 1 2 5 8 13 20 28 33 36 38 39 40 40 36 29 23 23 25 26 27 29 33 35 33 30 32 37 43 46 51 57 63 70 78 84 89 93 96 99 102 105 107 110
331 330 330 330 330 330 330 330 329 329 329 330 331 332 334 335 337 338 338 339 339 339 340 341 341 342 342 344 347 350 353 355 357 358 359 357 354 351 351 353 355 358 0 3 6 9 14 20 27 32 36 38 40 41 43 44 39 32 27 31 34 36 36 36 38 40 44 48 50 52 56 61 67 72 78 84 89 94 98 101 103 104 106 108 109 111
330 329 328 328 327 327 327 327 327 327 327 327 328 330 331 332 334 335 336 337 338 339 340 340 340 340 341 344 347 351 353 355 357 358 359 357 352 349 350 352 355 358 2 6 10 13 18 24 31 35 39 40 41 43 46 47 45 40 37 38 39 40 41 41 43 46 50 57 61 66 70 75 81 86 90 94 98 101 103 105 106 108 109 110 111 113
328 327 326 326 325 325 325 325 324 324 324 325 325 326 328 329 331 332 333 335 336 338 338 339 338 338 339 343 347 350 353 355 357 359 360 357 351 348 349 353 356 360 4 10 14 18 22 27 32 37 41 44 45 47 48 48 47 45 43 42 42 43 44 45 48 51 56 63 70 78 84 89 94 97 100 102 104 105 106 107 109 110 111 112 113 115
326 325 324 324 323 323 323 323 322 322 322 322 322 323 324 326 327 329 330 332 334 336 337 337 337 337 338 341 346 350 353 355 357 0 1 357 351 348 350 355 359 2 7 12 17 22 26 30 34 39 43 47 49 50 49 49 47 45 43 43 43 44 46 48 51 55 60 66 74 83 91 97 102 105 107 107 108 109 110 110 111 112 113 115 116 117
324 323 323 322 322 321 321 321 320 320 320 320 320 320 321 322 324 325 327 329 332 334 336 336 336 336 338 340 344 348 351 355 358 0 1 357 351 349 351 356 1 6 10 15 20 24 29 33 37 41 46 51 53 52 50 48 46 43 41 41 42 44 45 48 53 58 64 71 78 87 95 102 106 109 110 111 111 112 112 112 113 114 115 117 119 121
324 323 322 322 321 321 320 320 319 319 318 318 318 318 318 319 320 322 324 326 329 332 334 335 336 336 337 339 343 346 350 354 358 1 1 357 351 349 351 357 3 9 14 18 23 28 32 37 41 46 50 54 56 54 51 47 44 41 39 39 41 42 45 48 53 59 67 75 83 92 100 107 111 112 113 113 113 113 114 114 115 116 117 119 121 122
325 324 324 323 322 322 321 320 319 318 317 317 316 316 316 317 318 319 321 323 326 329 332 334 336 337 337 339 341 344 348 353 357 1 2 357 352 350 352 358 4 9 15 21 26 31 36 41 46 51 56 59 61 59 55 50 44 39 36 37 40 41 43 47 52 58 67 76 85 94 103 110 115 117 117 117 116 116 115 115 116 116 117 119 120 122